ION SCV-002 (47504 NORAD) Tracking and Keplerian Element Data

This shows tracking and keplerian element data for the satellite.

Feedback or suggestion? Click here.




ElementValue
Catalog47504
NameION SCV-002
Epoch Orbit1262
Epoch Day106.11851054
Epoch Year2021
RAAN168.4192
Inclination97.5033
Eccentricity0.001396
Argument of Perigee322.5519
Mean Anonmoly37.4739
Mean Motion15.13910282
Decay Rate1.127E-05
L11 47504U 21006CV 21106.11851054 .00001127 00000-0 65747-4 0 9998
L22 47504 97.5033 168.4192 0013960 322.5519 37.4739 15.13910282 12622

Live tracking and technical data element details for ION SCV-002 (NORAD 47504). ION SCV-002 can be tracked NOW for your location showing map with azimuth and elevation plus other details from your city location.

Track the satellite on the map from your city or location and see movement details for azimuth, elevation, latitude, longitude, range, height, and movement on the map or in text.







IsCatalogInMostPopularTable: catalog: 47504, numindb: 15
Update: records affected: 1



GetName: 47504 ION SCV-002

Hit Count: updated at: Fri, 16 Apr 2021 10:31:59 GMT